RYR4VL LIBC-LIPE

Flight info

Callsign RYR4VL
Flight time 1h 11m
Altitude 38000
Route CDC DCT SOMAS DCT ARBUM DCT EVINO DCT TEA DCT BAGNO DCT PELEG
Aircraft B738/M-SDE3FGILRWY/SB1

Departure

Time 2026-04-27 09:50
Airport Crotone Sant'Anna Pythagoras Airport (LIBC)

Arrival

Time 2026-04-27 11:01
Airport Bologna Guglielmo Marconi Airport (LIPE)
Time Latitude Longitude Altitude Speed Heading
2026-04-27 09:27 38.99519 17.07793 527 ft 0 kts 302°
2026-04-27 09:45 38.99521 17.07792 527 ft 2 kts 315°
2026-04-27 09:45 38.99534 17.07813 526 ft 6 kts 81°
2026-04-27 09:45 38.99487 17.07864 526 ft 14 kts 173°
2026-04-27 09:46 38.99409 17.07915 526 ft 13 kts 133°
2026-04-27 09:46 38.99349 17.08001 525 ft 13 kts 130°
2026-04-27 09:46 38.99293 17.08087 527 ft 12 kts 130°
2026-04-27 09:46 38.99187 17.08160 528 ft 23 kts 169°
2026-04-27 09:47 38.99033 17.08198 528 ft 22 kts 168°
2026-04-27 09:47 38.98902 17.08205 525 ft 16 kts 191°
2026-04-27 09:47 38.98861 17.08235 523 ft 4 kts 50°
2026-04-27 09:47 38.98886 17.08234 524 ft 4 kts 351°
2026-04-27 09:48 38.98889 17.08233 524 ft 0 kts 348°
2026-04-27 09:49 38.99190 17.08159 528 ft 89 kts 349°
2026-04-27 09:50 39.00071 17.07937 559 ft 162 kts 349°
2026-04-27 09:50 39.01251 17.07653 1297 ft 179 kts 350°
2026-04-27 09:50 39.02508 17.07351 2303 ft 188 kts 350°
2026-04-27 09:50 39.03792 17.07020 3367 ft 187 kts 348°
2026-04-27 09:51 39.05041 17.06668 4323 ft 186 kts 348°
2026-04-27 09:51 39.06375 17.06319 4873 ft 209 kts 349°
2026-04-27 09:51 39.07896 17.05929 5115 ft 235 kts 346°
2026-04-27 09:51 39.09358 17.04923 5630 ft 244 kts 318°
2026-04-27 09:52 39.10576 17.03389 6327 ft 247 kts 314°
2026-04-27 09:52 39.11770 17.01795 7018 ft 252 kts 313°
2026-04-27 09:52 39.13029 17.00098 7444 ft 269 kts 313°
2026-04-27 09:52 39.14341 16.98328 8315 ft 274 kts 313°
2026-04-27 09:53 39.15664 16.96548 9251 ft 277 kts 313°
2026-04-27 09:53 39.17009 16.94743 10178 ft 281 kts 313°
2026-04-27 09:53 39.18388 16.92894 10777 ft 296 kts 313°
2026-04-27 09:53 39.19881 16.90892 11048 ft 321 kts 313°
2026-04-27 09:54 39.21451 16.88792 11750 ft 328 kts 313°
2026-04-27 09:54 39.23053 16.86649 12503 ft 336 kts 313°
2026-04-27 09:54 39.24688 16.84462 13329 ft 340 kts 313°
2026-04-27 09:54 39.26336 16.82254 14158 ft 344 kts 313°
2026-04-27 09:55 39.28001 16.80024 14934 ft 347 kts 313°
2026-04-27 09:55 39.29682 16.77773 15677 ft 350 kts 313°
2026-04-27 09:55 39.33063 16.73239 16152 ft 354 kts 313°
2026-04-27 09:56 39.34779 16.70935 16222 ft 359 kts 313°
2026-04-27 09:56 39.36518 16.68602 16910 ft 360 kts 313°
2026-04-27 09:56 39.38246 16.66278 17855 ft 358 kts 313°
2026-04-27 09:56 39.39974 16.63952 18617 ft 360 kts 313°
2026-04-27 09:57 39.41720 16.61599 19213 ft 365 kts 313°
2026-04-27 09:57 39.43487 16.59217 19817 ft 369 kts 313°
2026-04-27 09:57 39.45270 16.56812 20446 ft 372 kts 313°
2026-04-27 09:57 39.47071 16.54382 21060 ft 376 kts 313°
2026-04-27 09:58 39.48885 16.51932 21663 ft 379 kts 314°
2026-04-27 09:58 39.50718 16.49453 22267 ft 383 kts 314°
2026-04-27 09:58 39.52567 16.46952 22859 ft 386 kts 314°
2026-04-27 09:58 39.54433 16.44426 23448 ft 390 kts 314°
2026-04-27 09:59 39.56314 16.41875 23956 ft 393 kts 314°
2026-04-27 09:59 39.58213 16.39300 24441 ft 396 kts 314°
2026-04-27 09:59 39.60123 16.36707 24929 ft 399 kts 314°
2026-04-27 09:59 39.62044 16.34097 25403 ft 402 kts 313°
2026-04-27 10:00 39.63979 16.31465 25816 ft 404 kts 313°
2026-04-27 10:00 39.65921 16.28821 26375 ft 405 kts 313°
2026-04-27 10:00 39.67875 16.26158 26803 ft 409 kts 313°
2026-04-27 10:00 39.69844 16.23472 27207 ft 413 kts 313°
2026-04-27 10:01 39.71829 16.20763 27632 ft 415 kts 313°
2026-04-27 10:01 39.73829 16.18031 28045 ft 418 kts 313°
2026-04-27 10:01 39.75839 16.15283 28459 ft 421 kts 313°
2026-04-27 10:01 39.77859 16.12519 28878 ft 423 kts 312°
2026-04-27 10:02 39.79890 16.09736 29296 ft 425 kts 312°
2026-04-27 10:02 39.81906 16.06972 29650 ft 428 kts 312°
2026-04-27 10:02 39.83961 16.04152 30021 ft 431 kts 312°
2026-04-27 10:02 39.86026 16.01316 30374 ft 433 kts 312°
2026-04-27 10:03 39.88102 15.98462 30698 ft 435 kts 312°
2026-04-27 10:03 39.90182 15.95600 31018 ft 436 kts 312°
2026-04-27 10:03 39.92269 15.92725 31362 ft 437 kts 312°
2026-04-27 10:03 39.94353 15.89852 31793 ft 435 kts 312°
2026-04-27 10:04 39.96426 15.86992 32255 ft 433 kts 312°
2026-04-27 10:04 39.98489 15.84142 32688 ft 431 kts 312°
2026-04-27 10:04 40.00545 15.81298 33078 ft 431 kts 312°
2026-04-27 10:04 40.02597 15.78459 33485 ft 429 kts 312°
2026-04-27 10:05 40.04640 15.75629 33894 ft 428 kts 312°
2026-04-27 10:05 40.06689 15.72795 34229 ft 428 kts 312°
2026-04-27 10:05 40.08724 15.69971 34578 ft 426 kts 312°
2026-04-27 10:05 40.10753 15.67151 34904 ft 426 kts 312°
2026-04-27 10:06 40.12780 15.64332 35191 ft 426 kts 312°
2026-04-27 10:06 40.14805 15.61511 35471 ft 426 kts 312°
2026-04-27 10:06 40.16827 15.58692 35790 ft 425 kts 312°
2026-04-27 10:06 40.18847 15.55875 36129 ft 423 kts 312°
2026-04-27 10:07 40.20855 15.53072 36438 ft 422 kts 312°
2026-04-27 10:07 40.22859 15.50273 36693 ft 422 kts 312°
2026-04-27 10:07 40.24867 15.47464 36944 ft 422 kts 311°
2026-04-27 10:07 40.26873 15.44657 37190 ft 422 kts 311°
2026-04-27 10:08 40.28874 15.41853 37487 ft 421 kts 311°
2026-04-27 10:08 40.30872 15.39053 37782 ft 420 kts 312°
2026-04-27 10:08 40.32985 15.36480 38029 ft 422 kts 321°
2026-04-27 10:08 40.35391 15.34188 38176 ft 424 kts 323°
2026-04-27 10:09 40.40250 15.29733 38154 ft 426 kts 323°
2026-04-27 10:09 40.45074 15.25302 38166 ft 420 kts 323°
2026-04-27 10:10 40.49797 15.20906 38155 ft 418 kts 323°
2026-04-27 10:10 40.54518 15.16479 38154 ft 416 kts 322°
2026-04-27 10:11 40.59218 15.12055 38159 ft 415 kts 322°
2026-04-27 10:11 40.63911 15.07629 38153 ft 415 kts 322°
2026-04-27 10:12 40.68604 15.03197 38160 ft 416 kts 322°
2026-04-27 10:12 40.73313 14.98742 38159 ft 418 kts 322°
2026-04-27 10:13 40.78043 14.94259 38159 ft 419 kts 322°
2026-04-27 10:13 40.82788 14.89754 38163 ft 421 kts 322°
2026-04-27 10:14 40.87546 14.85228 38165 ft 422 kts 322°
2026-04-27 10:14 40.92322 14.80679 38161 ft 423 kts 322°
2026-04-27 10:15 40.97103 14.76115 38157 ft 424 kts 322°
2026-04-27 10:15 41.01886 14.71541 38163 ft 424 kts 322°
2026-04-27 10:16 41.06670 14.66958 38155 ft 424 kts 322°
2026-04-27 10:16 41.11446 14.62374 38159 ft 424 kts 322°
2026-04-27 10:17 41.16214 14.57790 38153 ft 423 kts 322°
2026-04-27 10:17 41.20971 14.53207 38161 ft 422 kts 322°
2026-04-27 10:18 41.25724 14.48620 38151 ft 422 kts 322°
2026-04-27 10:18 41.30468 14.44033 38160 ft 421 kts 322°
2026-04-27 10:19 41.35207 14.39443 38154 ft 421 kts 322°
2026-04-27 10:19 41.39909 14.34880 38152 ft 421 kts 322°
2026-04-27 10:20 41.44635 14.30285 38157 ft 420 kts 322°
2026-04-27 10:20 41.49357 14.25686 38143 ft 420 kts 322°
2026-04-27 10:21 41.54075 14.21082 38150 ft 420 kts 322°
2026-04-27 10:21 41.58787 14.16474 38155 ft 420 kts 322°
2026-04-27 10:22 41.63500 14.11859 38153 ft 420 kts 322°
2026-04-27 10:22 41.67413 14.08020 38156 ft 420 kts 322°
2026-04-27 10:23 41.72126 14.03388 38153 ft 420 kts 322°
2026-04-27 10:23 41.76836 13.98751 38157 ft 420 kts 322°
2026-04-27 10:24 41.81544 13.94106 38156 ft 421 kts 321°
2026-04-27 10:24 41.86258 13.89448 38161 ft 420 kts 321°
2026-04-27 10:25 41.90965 13.84787 38142 ft 420 kts 321°
2026-04-27 10:25 41.95662 13.80129 38146 ft 419 kts 321°
2026-04-27 10:26 42.00348 13.75471 38155 ft 419 kts 321°
2026-04-27 10:26 42.05044 13.70795 38146 ft 420 kts 321°
2026-04-27 10:27 42.09736 13.66113 38141 ft 421 kts 321°
2026-04-27 10:27 42.14405 13.61447 38146 ft 420 kts 321°
2026-04-27 10:28 42.19095 13.56752 38146 ft 420 kts 321°
2026-04-27 10:28 42.23784 13.52047 38150 ft 420 kts 321°
2026-04-27 10:29 42.28479 13.47327 38149 ft 421 kts 321°
2026-04-27 10:29 42.33181 13.42592 38144 ft 422 kts 321°
2026-04-27 10:30 42.37887 13.37843 38157 ft 422 kts 321°
2026-04-27 10:30 42.42588 13.33091 38156 ft 422 kts 321°
2026-04-27 10:31 42.47288 13.28330 38152 ft 422 kts 321°
2026-04-27 10:31 42.51990 13.23559 38155 ft 422 kts 321°
2026-04-27 10:32 42.56679 13.18792 38149 ft 421 kts 321°
2026-04-27 10:32 42.61362 13.14021 38156 ft 420 kts 321°
2026-04-27 10:33 42.66034 13.09252 38153 ft 420 kts 321°
2026-04-27 10:33 42.68381 13.06852 37882 ft 425 kts 321°
2026-04-27 10:33 42.70738 13.04441 37621 ft 424 kts 321°
2026-04-27 10:34 42.73084 13.02038 37348 ft 420 kts 321°
2026-04-27 10:34 42.75406 12.99659 37066 ft 415 kts 321°
2026-04-27 10:34 42.77698 12.97308 36792 ft 410 kts 321°
2026-04-27 10:34 42.79966 12.94979 36529 ft 407 kts 321°
2026-04-27 10:35 42.82205 12.92678 36231 ft 400 kts 321°
2026-04-27 10:35 42.84411 12.90407 35836 ft 397 kts 321°
2026-04-27 10:35 42.86603 12.88151 35461 ft 393 kts 321°
2026-04-27 10:35 42.88777 12.85909 35089 ft 390 kts 321°
2026-04-27 10:36 42.90935 12.83682 34710 ft 388 kts 321°
2026-04-27 10:36 42.93081 12.81465 34328 ft 385 kts 321°
2026-04-27 10:36 42.95213 12.79261 33941 ft 383 kts 321°
2026-04-27 10:36 42.97328 12.77072 33527 ft 381 kts 321°
2026-04-27 10:37 42.99435 12.74890 33133 ft 378 kts 321°
2026-04-27 10:37 43.01523 12.72726 32767 ft 375 kts 321°
2026-04-27 10:37 43.03570 12.70603 32409 ft 373 kts 321°
2026-04-27 10:37 43.05632 12.68463 32036 ft 370 kts 321°
2026-04-27 10:38 43.07674 12.66341 31688 ft 368 kts 321°
2026-04-27 10:38 43.09734 12.64198 31315 ft 366 kts 321°
2026-04-27 10:38 43.11727 12.62123 30977 ft 364 kts 321°
2026-04-27 10:38 43.13735 12.60031 30623 ft 362 kts 321°
2026-04-27 10:39 43.15734 12.57946 30273 ft 360 kts 321°
2026-04-27 10:39 43.17723 12.55869 29869 ft 358 kts 321°
2026-04-27 10:39 43.19696 12.53809 29487 ft 356 kts 321°
2026-04-27 10:39 43.21652 12.51765 29139 ft 352 kts 322°
2026-04-27 10:40 43.23596 12.49732 28747 ft 350 kts 322°
2026-04-27 10:40 43.25521 12.47716 28399 ft 347 kts 322°
2026-04-27 10:40 43.27434 12.45712 28026 ft 345 kts 322°
2026-04-27 10:40 43.29331 12.43722 27667 ft 343 kts 322°
2026-04-27 10:41 43.31213 12.41746 27245 ft 338 kts 322°
2026-04-27 10:41 43.33076 12.39789 26778 ft 338 kts 322°
2026-04-27 10:41 43.34965 12.37803 26335 ft 345 kts 322°
2026-04-27 10:41 43.36883 12.35785 25904 ft 349 kts 322°
2026-04-27 10:42 43.38804 12.33762 25454 ft 346 kts 323°
2026-04-27 10:42 43.40701 12.31762 25026 ft 343 kts 323°
2026-04-27 10:42 43.42583 12.29777 24596 ft 340 kts 323°
2026-04-27 10:42 43.44453 12.27804 24174 ft 337 kts 323°
2026-04-27 10:43 43.46308 12.25845 23764 ft 336 kts 323°
2026-04-27 10:43 43.48158 12.23889 23272 ft 334 kts 323°
2026-04-27 10:43 43.49997 12.21944 22789 ft 332 kts 323°
2026-04-27 10:43 43.51823 12.20010 22321 ft 331 kts 323°
2026-04-27 10:44 43.53642 12.18083 21850 ft 329 kts 323°
2026-04-27 10:44 43.55452 12.16164 21393 ft 328 kts 323°
2026-04-27 10:44 43.57310 12.14363 20929 ft 326 kts 332°
2026-04-27 10:44 43.59349 12.13019 20498 ft 324 kts 336°
2026-04-27 10:45 43.61407 12.11764 20043 ft 323 kts 336°
2026-04-27 10:45 43.63461 12.10528 19626 ft 321 kts 336°
2026-04-27 10:45 43.65503 12.09292 19200 ft 320 kts 336°
2026-04-27 10:45 43.67536 12.08056 18779 ft 319 kts 336°
2026-04-27 10:46 43.69564 12.06815 18366 ft 318 kts 336°
2026-04-27 10:46 43.71584 12.05572 17864 ft 317 kts 336°
2026-04-27 10:46 43.73592 12.04330 17404 ft 315 kts 336°
2026-04-27 10:46 43.75586 12.03095 16922 ft 314 kts 336°
2026-04-27 10:47 43.77573 12.01860 16475 ft 312 kts 336°
2026-04-27 10:47 43.79500 12.00603 16030 ft 310 kts 333°
2026-04-27 10:47 43.81396 11.99206 15589 ft 308 kts 332°
2026-04-27 10:47 43.83284 11.97756 15142 ft 304 kts 332°
2026-04-27 10:48 43.85098 11.96353 14713 ft 302 kts 332°
2026-04-27 10:48 43.86927 11.94945 14300 ft 300 kts 332°
2026-04-27 10:48 43.88753 11.93545 13837 ft 299 kts 332°
2026-04-27 10:48 43.90570 11.92158 13398 ft 297 kts 332°
2026-04-27 10:49 43.92375 11.90782 12924 ft 295 kts 332°
2026-04-27 10:49 43.94170 11.89419 12473 ft 293 kts 332°
2026-04-27 10:49 43.95956 11.88065 12018 ft 292 kts 332°
2026-04-27 10:49 43.97734 11.86715 11589 ft 290 kts 332°
2026-04-27 10:50 43.99504 11.85372 11146 ft 289 kts 332°
2026-04-27 10:50 44.01267 11.84032 10719 ft 288 kts 332°
2026-04-27 10:50 44.03025 11.82693 10286 ft 288 kts 332°
2026-04-27 10:50 44.04783 11.81358 9848 ft 287 kts 332°
2026-04-27 10:51 44.06532 11.80028 9370 ft 286 kts 332°
2026-04-27 10:51 44.08265 11.78709 8903 ft 282 kts 332°
2026-04-27 10:51 44.09981 11.77402 8448 ft 280 kts 332°
2026-04-27 10:51 44.11680 11.76105 8012 ft 277 kts 332°
2026-04-27 10:52 44.13363 11.74821 7566 ft 275 kts 331°
2026-04-27 10:52 44.15034 11.73544 7125 ft 273 kts 331°
2026-04-27 10:52 44.16689 11.72280 6702 ft 270 kts 331°
2026-04-27 10:52 44.18333 11.71023 6259 ft 269 kts 331°
2026-04-27 10:53 44.19965 11.69772 5814 ft 267 kts 331°
2026-04-27 10:53 44.23207 11.67288 4954 ft 265 kts 330°
2026-04-27 10:53 44.24843 11.66034 4611 ft 269 kts 331°
2026-04-27 10:54 44.26480 11.64787 4367 ft 267 kts 331°
2026-04-27 10:54 44.28110 11.63535 4118 ft 268 kts 331°
2026-04-27 10:54 44.29739 11.62282 3859 ft 267 kts 330°
2026-04-27 10:54 44.31359 11.61036 3610 ft 265 kts 331°
2026-04-27 10:55 44.32976 11.59796 3371 ft 264 kts 331°
2026-04-27 10:55 44.34583 11.58557 3115 ft 263 kts 331°
2026-04-27 10:55 44.36149 11.57348 3025 ft 250 kts 331°
2026-04-27 10:55 44.37620 11.56217 2996 ft 233 kts 331°
2026-04-27 10:56 44.38978 11.55173 2987 ft 221 kts 331°
2026-04-27 10:56 44.40322 11.54133 3007 ft 217 kts 331°
2026-04-27 10:56 44.41642 11.53118 3018 ft 213 kts 331°
2026-04-27 10:56 44.42880 11.52162 3009 ft 199 kts 331°
2026-04-27 10:57 44.44043 11.51264 2983 ft 183 kts 331°
2026-04-27 10:57 44.45152 11.50406 2995 ft 179 kts 329°
2026-04-27 10:57 44.45999 11.49190 2990 ft 173 kts 298°
2026-04-27 10:57 44.46619 11.47791 2987 ft 167 kts 303°
2026-04-27 10:58 44.47217 11.46437 2977 ft 165 kts 299°
2026-04-27 10:58 44.47757 11.45018 2865 ft 166 kts 297°
2026-04-27 10:58 44.48272 11.43600 2613 ft 163 kts 297°
2026-04-27 10:58 44.48776 11.42186 2352 ft 162 kts 297°
2026-04-27 10:59 44.49266 11.40814 2095 ft 152 kts 297°
2026-04-27 10:59 44.49727 11.39526 1870 ft 145 kts 297°
2026-04-27 10:59 44.50174 11.38277 1674 ft 144 kts 297°
2026-04-27 11:00 44.51073 11.35768 1184 ft 143 kts 297°
2026-04-27 11:00 44.51517 11.34527 952 ft 142 kts 298°
2026-04-27 11:00 44.51955 11.33306 720 ft 140 kts 298°
2026-04-27 11:00 44.52392 11.32086 514 ft 139 kts 298°
2026-04-27 11:01 44.52825 11.30877 308 ft 140 kts 299°
2026-04-27 11:01 44.53247 11.29682 145 ft 131 kts 298°
2026-04-27 11:01 44.53616 11.28674 126 ft 99 kts 297°
2026-04-27 11:01 44.53773 11.28178 128 ft 33 kts 269°
2026-04-27 11:02 44.53656 11.28048 127 ft 22 kts 148°
2026-04-27 11:02 44.53579 11.28221 127 ft 21 kts 116°
2026-04-27 11:02 44.53515 11.28400 127 ft 20 kts 117°
2026-04-27 11:02 44.53452 11.28574 125 ft 20 kts 117°
2026-04-27 11:03 44.53392 11.28742 127 ft 19 kts 117°
2026-04-27 11:03 44.53333 11.28904 127 ft 18 kts 116°
2026-04-27 11:03 44.53276 11.29063 129 ft 19 kts 116°
2026-04-27 11:03 44.53204 11.29196 130 ft 16 kts 181°
2026-04-27 11:04 44.53103 11.29138 128 ft 13 kts 206°
2026-04-27 11:04 44.53059 11.29144 126 ft 6 kts 116°
2026-04-27 11:04 44.53038 11.29199 127 ft 7 kts 117°
2026-04-27 11:04 44.53034 11.29211 129 ft 0 kts 117°